TOURFACTS.DK  
Stats and Facts from Tour de France.

Tour de France 2018 starts in 169 days
  Riders   Stages   Teams   Summits   Yearly  


 
Search by year

 2017 - St.21:
 14824 starters.
  5132 different riders.
  635 teams.
  2232 stages.
  454 restdays.
  439589.60 km.
  5653 abandonnees.


Top 3
GC
Christopher Froome86:20:55
Rigoberto Uran86:21:49
Romain Bardet86:23:15
Climb
Warren Barguil169 pt.
Primoz Roglic80 pt.
Thomas De Gendt64 pt.
Sprint
Michael Matthews359 pt.
André Greipel234 pt.
Edvald Boasson Hagen220 pt.
Youth
Simon Yates86:27:09
Louis Meintjes86:29:15
Emanuel Buchmann86:54:16
Facts from Tour de France 1975
  |   Stages.  |   Stage winners.  |   Days in yellow  |   Average speed.  |   Route.  |   Teams.  |   All riders.  |   Rookies.  |   Withdrawls.  |  

  |   GC.  |   Polka  |   Green  |   White  |   Summits. (In tour)  |   Summits. (Points)  |   Miscellaneous.  |  

Stage 17 on 15 - 07 - 1975
         Owning:    Bernard Thevenet    
Pick a stage:  Pro 1a 1b 2 3 4 5 6 7 8 9a 9b 10 11 12 13 14 15 16 17 18 19 20 21 22
  ValloireMorzine-Avoriaz | Dist: 225.00 km.
Cat: 1Col de la MadeleineESPFrancisco Galdos
20 points
 
Cat: 3Col de l'Aravis - ThônesBELLucien Van Impe
8 points
 
Cat: 2Col de la Colombiere ESPVicente Lopez
15 points
 
Cat: 1Avoriaz - MorzineESPVicente Lopez
20 points
 

Average speed for all riders in stage:  28,942 km./hr.
    Place:Name:Team:Time:Km/h:
ESPVicente LopezESPKas-Kaskol07:23:38  +  00:00:00=30,431 
BELLucien Van ImpeFRAGitane-Campagnolo07:25:49  +  00:02:11=30,282 
BELEddy MerckxITAMolteni07:27:22  +  00:03:44=30,177 
4 NEDJoop ZoetemelkFRAGan-Mercier-Hutchinson07:27:23  +  00:03:45=30,175 
5 FRABernard ThevenetFRAPeugeot-BP-Michelin07:27:24  +  00:03:46=30,174 
6 SUIJosef FuchsITAFilotex07:27:34  +  00:03:56=30,163 
7 BELMichel PollentierBELCarpenter Confortluxe-Flandria07:27:46  +  00:04:08=30,150 
8 FRARaymond DelisleFRAPeugeot-BP-Michelin07:27:55  +  00:04:17=30,140 
9 BELEduard JanssensITAMolteni07:29:11  +  00:05:33=30,055 
10 ITAFelice GimondiITABianchi-Campagnolo07:29:11  +  00:05:33=30,055 
11 ITAFrancesco MoserITAFilotex07:29:11  +  00:05:33=30,055 
12 ESPPedro TorresESPSuper Ser07:29:13  +  00:05:35=30,052 
13 NEDHennie KuiperNLDFrisol-G.B.C.07:29:13  +  00:05:35=30,052 
14 FRAGeorges TalbourdetFRAGan-Mercier-Hutchinson07:29:13  +  00:05:35=30,052 
15 BELTony HoubrechtsITABianchi-Campagnolo07:29:51  +  00:06:13=30,010 
16 PORJoaquim AgostinhoPRTSporting-Sottomayor07:30:26  +  00:06:48=29,971 
17 ITARoberto PoggialiITAFilotex07:30:26  +  00:06:48=29,971 
18 ESPAndré RomeroFRAJobo-Wolber07:31:10  +  00:07:32=29,922 
19 ESPMariano MartinezFRAGitane-Campagnolo07:31:22  +  00:07:44=29,909 
20 FRAPatrick PerretBELMiko-De Gribaldy07:31:40  +  00:08:02=29,889 
21 NEDFedor Iwan Den HertogNLDFrisol-G.B.C.07:32:10  +  00:08:32=29,856 
22 FRAJoël MillardFRAJobo-Wolber07:32:41  +  00:09:03=29,822 
23 FRAYves HézardFRAGan-Mercier-Hutchinson07:33:54  +  00:10:16=29,742 
24 ESPJosé PesarrodonaESPKas-Kaskol07:33:54  +  00:10:16=29,742 
25 FRAGuy LeleuFRAGitane-Campagnolo07:34:20  +  00:10:42=29,714 
26 ESPJosé-Luis ViejoESPSuper Ser07:35:20  +  00:11:42=29,649 
27 FRAFerdinand JulienPRTSporting-Sottomayor07:35:51  +  00:12:13=29,615 
28 BELJos De SchoenmaeckerITAMolteni07:35:51  +  00:12:13=29,615 
29 FRARégis OvionFRAPeugeot-BP-Michelin07:36:12  +  00:12:34=29,592 
30 ITASimone FraccaroITABianchi-Campagnolo07:36:31  +  00:12:53=29,572 
31 ITARenato MarchettiITAFilotex07:41:21  +  00:17:43=29,262 
32 FRAHubert MathisBELMiko-De Gribaldy07:41:21  +  00:17:43=29,262 
33 ESPCarlos MeleroESPKas-Kaskol07:41:21  +  00:17:43=29,262 
34 BELHerman Van SpringelBELCarpenter Confortluxe-Flandria07:41:21  +  00:17:43=29,262 
35 BELRonald De WitteBELCarpenter Confortluxe-Flandria07:41:21  +  00:17:43=29,262 
36 BELMarc DemeyerBELCarpenter Confortluxe-Flandria07:41:21  +  00:17:43=29,262 
37 FRAPatrick BeonFRAPeugeot-BP-Michelin07:41:21  +  00:17:43=29,262 
38 ESPLuis BalagueESPSuper Ser07:41:21  +  00:17:43=29,262 
39 FRASylvain VasseurESPSuper Ser07:41:21  +  00:17:43=29,262 
40 BELAlbert Van VlierbergheBELMiko-De Gribaldy07:41:21  +  00:17:43=29,262 
41 FRABernard BourreauFRAPeugeot-BP-Michelin07:42:03  +  00:18:25=29,218 
42 ITAArnaldo CaverzasiITAFilotex07:42:03  +  00:18:25=29,218 
43 COLMartìn RodríguezITABianchi-Campagnolo07:43:35  +  00:19:57=29,121 
44 FRARaymond PoulidorFRAGan-Mercier-Hutchinson07:47:52  +  00:24:14=28,854 
45 BELWilly TeirlinckFRAGitane-Campagnolo07:51:20  +  00:27:42=28,642 
46 FRARichard PianaroFRAJobo-Wolber07:51:20  +  00:27:42=28,642 
47 BELMarc LievensITAMolteni07:51:20  +  00:27:42=28,642 
48 ESPJosé CasasESPSuper Ser07:51:20  +  00:27:42=28,642 
49 FRACharly RouxelFRAPeugeot-BP-Michelin07:51:20  +  00:27:42=28,642 
50 NEDGerben KarstensFRAGitane-Campagnolo07:51:20  +  00:27:42=28,642 
51 FRARobert MintkiewiczFRAGitane-Campagnolo07:51:20  +  00:27:42=28,642 
52 ESPFrancisco GaldosESPKas-Kaskol07:51:20  +  00:27:42=28,642 
53 DENOle RitterITAFilotex07:51:20  +  00:27:42=28,642 
54 BELWalter GodefrootBELCarpenter Confortluxe-Flandria07:51:20  +  00:27:42=28,642 
55 BELHerman BeysensITAMolteni07:51:20  +  00:27:42=28,642 
56 BELJoseph SpruytITAMolteni07:51:20  +  00:27:42=28,642 
57 BELLudo DelcroixITAMolteni07:51:42  +  00:28:04=28,620 
58 NEDGerrie KnetemannFRAGan-Mercier-Hutchinson07:52:12  +  00:28:34=28,590 
59 ITASigfrido FontanelliITAFilotex07:52:12  +  00:28:34=28,590 
60 FRAClaude MagniFRAJobo-Wolber07:52:31  +  00:28:53=28,570 
61 BELFrans MintjensITAMolteni07:52:31  +  00:28:53=28,570 
62 BELKarel RottiersITAMolteni07:54:40  +  00:31:02=28,441 
63 ESPJosé GrandeESPKas-Kaskol07:55:01  +  00:31:23=28,420 
64 ESPAntonio MenendezESPKas-Kaskol07:55:08  +  00:31:30=28,413 
65 FRAFrancis CampanerPRTSporting-Sottomayor08:00:09  +  00:36:31=28,116 
66 BELRik Van LindenITABianchi-Campagnolo08:00:09  +  00:36:31=28,116 
67 BELJoseph HuysmansITAMolteni08:00:09  +  00:36:31=28,116 
68 FRARoger LegeayFRAJobo-Wolber08:00:09  +  00:36:31=28,116 
69 FRAJoel HauvieuxFRAJobo-Wolber08:00:09  +  00:36:31=28,116 
70 ITAGiacinto SantambrogioITABianchi-Campagnolo08:00:09  +  00:36:31=28,116 
71 NEDGerard VianenFRAGan-Mercier-Hutchinson08:00:09  +  00:36:31=28,116 
72 BELJosé De CauwerNLDFrisol-G.B.C.08:00:09  +  00:36:31=28,116 
73 PORJosé AmaroPRTSporting-Sottomayor08:00:09  +  00:36:31=28,116 
74 ITAFabrizio FabbriITABianchi-Campagnolo08:00:09  +  00:36:31=28,116 
75 FRAMaurice Le GuillouxFRAGitane-Campagnolo08:00:09  +  00:36:31=28,116 
76 BELFrans Van VlierbergheBELMiko-De Gribaldy08:00:09  +  00:36:31=28,116 
77 FRARegis DelepineBELCarpenter Confortluxe-Flandria08:00:09  +  00:36:31=28,116 
78 ITALuigi CastellettiITABianchi-Campagnolo08:00:09  +  00:36:31=28,116 
79 ITAMauro SimonettiITAFilotex08:00:09  +  00:36:31=28,116 
80 BELRené DillenFRAGitane-Campagnolo08:00:09  +  00:36:31=28,116 
81 ITAGiovanni CavalcantiITABianchi-Campagnolo08:00:09  +  00:36:31=28,116 
82 FRASerge ParsaniITABianchi-Campagnolo08:00:09  +  00:36:31=28,116 
83 FRARaymond MartinFRAGitane-Campagnolo08:00:09  +  00:36:31=28,116 
84 FRAJacques BoulasFRAJobo-Wolber08:00:09  +  00:36:31=28,116 
85 ENGBarry HobanFRAGan-Mercier-Hutchinson08:00:09  +  00:36:31=28,116 
86 AUSDonald AllanNLDFrisol-G.B.C.08:00:09  +  00:36:31=28,116 
87 MARAntoine GutierrezBELMiko-De Gribaldy08:00:09  +  00:36:31=28,116 
88 FRAJean-Claude MisacFRAGan-Mercier-Hutchinson08:00:09  +  00:36:31=28,116 
89 BELAndre DoyenBELMiko-De Gribaldy08:00:09  +  00:36:31=28,116 
90 FRAGuy SibilleFRAPeugeot-BP-Michelin08:00:33  +  00:36:55=28,093 
91 PORFernando FerreiraPRTSporting-Sottomayor08:01:28  +  00:37:50=28,039 
92 FRAGerard MoneyronBELCarpenter Confortluxe-Flandria08:01:46  +  00:38:08=28,022 
93 NEDGerard KamperNLDFrisol-G.B.C.08:01:49  +  00:38:11=28,019 
94 NEDHenk PrinsenNLDFrisol-G.B.C.08:04:29  +  00:40:51=27,865 

Withdrawls: 3
 
Rider
Team
Reason
12  FRAJean-Pierre GenetFRAGan-Mercier-HutchinsonDid not start
55  FRAJean-Pierre DanguillaumeFRAPeugeot-BP-MichelinDid not finish
83  ITAPietro DallaiITAFilotexDid not finish

Todays birthdays.

1887  Marcel Godivier
1895  Louis Thuayre
1896  Léon Devos
1932  Aniceto Utset
1935  Willy Altig
1939  Sebastián Elorza
1941  René Binggeli
1948  Gerard Moneyron
1953  Patrocinio Jiménez
1954  Pierre Bazzo
1955  Serge Beucherie
1967  Antonio Politano
1969  Sergio Barbero
1977  Luca Paolini
1980  Gregory Rast
1981  Christophe Riblon
1985  Sebastian Langeveld
1990  Johan Esteban Chaves




Visits: